Pasco, WA
on Saturday, November 24, 2012

Saturday
Previous Day Next Day
Daily Summary
 ActualAverageRecord
Temperature
Mean Temperature °F 38°F  
Max Temperature 53°F 46°F 66°F (1990)
Min Temperature 36°F 31°F -7°F (2010)
Degree Days
Heating Degree Days 20 27  
Month to date heating degree days 470 543  
Since 1 July heating degree days 914 1061  
Cooling Degree Days 0 0  
Month to date cooling degree days 0 0  
Year to date cooling degree days 788 710  
Moisture
Dew Point 41°F   
Average Humidity 80    
Maximum Humidity 100    
Minimum Humidity 59    
Precipitation
Precipitation T in in 0.40 in (1961)
Month to date precipitation 1.03  
Year to date precipitation 8.49  
Snow
Snow 0.00 in in in ()
Snow Depth 0.00 in   
Wind
Wind Speed 8 mph   
Max Wind Speed 21 mph   
Max Gust Speed 26 mph   
Visibility 10 miles   
Events Rain   

Key: T is trace of precipitation, MM is missing value
Source: NWS Daily Summary
Time(PST)TemperatureDew PointHumidity Pressure Visibility Wind DirectionWind SpeedGust SpeedPrecipitationEvents Conditions
12:53 AM 48.0°F 44.1°F 86% 30.10 in 10.0 miles South 11.5 mph - 0.00 in   Overcast
1:53 AM 48.9°F 43.0°F 80% 30.10 in 10.0 miles SW 15.0 mph - N/A   Overcast
2:53 AM 48.9°F 43.0°F 80% 30.12 in 10.0 miles SSW 13.8 mph - 0.00 in Rain Light Rain
3:53 AM 50.0°F 43.0°F 77% 30.11 in 10.0 miles SW 11.5 mph - 0.00 in   Overcast
4:53 AM 48.9°F 44.1°F 83% 30.13 in 10.0 miles West 6.9 mph - N/A   Clear
5:53 AM 48.9°F 43.0°F 80% 30.15 in 10.0 miles West 12.7 mph - N/A   Overcast
6:53 AM 50.0°F 44.1°F 80% 30.16 in 10.0 miles West 6.9 mph - 0.00 in   Overcast
7:53 AM 46.9°F 43.0°F 86% 30.18 in 10.0 miles NW 5.8 mph - N/A   Overcast
8:53 AM 48.0°F 42.1°F 80% 30.19 in 10.0 miles Calm Calm - N/A   Overcast
9:53 AM 48.9°F 42.1°F 77% 30.21 in 10.0 miles Calm Calm - N/A   Mostly Cloudy
10:53 AM 51.1°F 39.9°F 66% 30.20 in 10.0 miles NNW 3.5 mph - N/A   Scattered Clouds
11:53 AM 53.1°F 39.0°F 59% 30.19 in 10.0 miles Variable 3.5 mph - N/A   Clear
12:53 PM 52.0°F 39.9°F 63% 30.18 in 10.0 miles NNW 4.6 mph - N/A   Clear
1:53 PM 52.0°F 39.9°F 63% 30.17 in 10.0 miles Calm Calm - N/A   Clear
2:53 PM 50.0°F 41.0°F 71% 30.17 in 10.0 miles NNE 6.9 mph - N/A   Clear
3:53 PM 46.9°F 39.9°F 77% 30.17 in 10.0 miles NNE 5.8 mph - N/A   Scattered Clouds
4:53 PM 45.0°F 41.0°F 86% 30.18 in 10.0 miles North 3.5 mph - N/A   Mostly Cloudy
5:53 PM 43.0°F 39.9°F 89% 30.17 in 10.0 miles WNW 3.5 mph - N/A   Mostly Cloudy
6:53 PM 44.1°F 39.0°F 82% 30.17 in 10.0 miles WNW 3.5 mph - N/A   Overcast
7:53 PM 42.1°F 39.0°F 89% 30.17 in 10.0 miles Calm Calm - N/A   Mostly Cloudy
8:53 PM 39.0°F 37.9°F 96% 30.17 in 10.0 miles North 3.5 mph - N/A   Mostly Cloudy
9:53 PM 39.0°F 37.9°F 96% 30.18 in 10.0 miles NNW 4.6 mph - N/A   Mostly Cloudy
10:53 PM 37.9°F 37.0°F 97% 30.18 in 10.0 miles Calm Calm - N/A   Overcast
11:53 PM 36.0°F 35.1°F 97% 30.19 in 9.0 miles NNW 3.5 mph - N/A   Mostly Cloudy
Moon Phase
Nov. 24 Nov. 28 Dec. 06 Dec. 13 Dec. 20
Sunrise:07:10 AM (PST) Moon Rise:02:11 PM (PST)
Sunset:04:15 PM (PST) Moon Set:03:22 AM (PST)

Copyright © 2014 The Weather Underground, Inc.